Tracking 28518 objects as of 2-Mar-2024
HD Live streaming from Space Station
objects crossing your sky now

STARLINK-30970

Track STARLINK-30970 now!
10-day predictions
STARLINK-30970 is classified as:


NORAD ID: 58888
Int'l Code: 2024-020N
Perigee: 488.0 km
Apogee: 489.8 km
Inclination: 53.2 °
Period: 94.2 minutes
Semi major axis: 6859 km
RCS: Unknown
Launch date: January 29, 2024
Source: United States (US)
Launch site: AIR FORCE WESTERN TEST RANGE (AFWTR)
Your satellite tracking list
Your tracking list is empty




NASA's NSSDC Master Catalog

Two Line Element Set (TLE):
1 58888U 24020N   24061.53219503 -.00002936  00000-0 -93424-4 0  9994
2 58888  53.1610 150.5507 0001319  73.9354 286.1791 15.28005374  5063
Source of the keplerian elements: AFSPC